IRNSS-1F (41384 NORAD) Tracking and Keplerian Element Data

This shows tracking and keplerian element data for the satellite.

Feedback or suggestion? Click here.




ElementValue
Catalog41384
NameIRNSS-1F
Epoch Orbit867
Epoch Day195.80289003
Epoch Year2018
RAAN253.8312
Inclination3.3598
Eccentricity0.0021179
Argument of Perigee184.7359
Mean Anonmoly175.5199
Mean Motion1.00277174
Decay Rate1.43E-06
L11 41384U 16015A 18195.80289003 .00000143 00000-0 00000-0 0 9995
L22 41384 3.3598 253.8312 0021179 184.7359 175.5199 1.00277174 8678

Live tracking and technical data element details for IRNSS-1F (NORAD 41384). IRNSS-1F can be tracked NOW for your location showing map with azimuth and elevation plus other details from your city location.

Track the satellite on the map from your city or location and see movement details for azimuth, elevation, latitude, longitude, range, height, and movement on the map or in text.







IsCatalogInMostPopularTable: catalog: 41384, numindb: 50
Update: records affected: 1



GetName: 41384 IRNSS-1F

Hit Count: updated at: Sun, 15 Jul 2018 23:18:28 GMT